Other Public Products
Issued by NWS Grand Forks, ND

Home | Current Version | Previous Version | Graphics & Text | Print | Product List | Glossary On
Versions: 1 2 3 4 5 6 7 8 9 10 11 12 13 14 15 16 17 18 19 20 21 22 23 24 25 26 27 28 29 30 31 32 33 34 35 36 37 38 39 40 41 42 43 44 45 46 47 48 49 50
000
FPUS83 KFGF 180210
OPUFGF
PRAIRIE TO PINES WEATHER ROUNDUP
NATIONAL WEATHER SERVICE EASTERN NORTH DAKOTA/GRAND FORKS ND
800 PM CST SAT FEB 17 2018

 **SATELLITE DATA USED TO AUGMENT SKY COVER AT AUTOMATED STATIONS**
 *****  WEATHER ACROSS EASTERN NORTH DAKOTA  *****

CITY           SKY/WX    TMP DP  RH WIND       PRES   REMARKS
GRAND FORKS    FLURRIES  15  10  80 N6        29.97S WCI   6
GRND FORKS AFB FAIR      12   9  85 CALM      29.97S
GRND FORKS NWS   N/A     15  10  80 N1        29.95S
BUXTON           N/A     16  13  88 SW8         N/A  WCI   6
DEVILS LAKE    FAIR       8   3  80 NW6       29.94R WCI  -2
FARGO          FAIR      14   8  77 SW6       29.98F WCI   5
WAHPETON ARPT  FAIR      18   7  62 CALM      30.02R
$$

 *****  WEATHER ACROSS CENTRAL AND WESTERN NORTH DAKOTA  *****

CITY           SKY/WX    TMP DP  RH WIND       PRES   REMARKS
JAMESTOWN      FAIR      14   7  73 NW8       29.94F WCI   3
BISMARCK       FAIR      17   8  67 SW5       29.94F WCI  10
MINOT          FAIR      12   3  67 W9        29.90F WCI   0
MINOT AFB      FAIR       7   2  79 CALM      29.90F
GARRISON         N/A     12   5  73 N3        29.89S
WILLISTON      CLOUDY    12   5  73 CALM      29.87F
DICKINSON      MOCLDY    14   7  73 SE5       29.80F WCI   6
HETTINGER      CLOUDY    15   8  73 SE5       29.83F WCI   8
$$

 *****  OTHER OBSERVATIONS NORTHEAST NORTH DAKOTA  *****

CITY           SKY/WX    TMP DP  RH WIND       PRES   REMARKS
WALHALLA       FAIR       9  -2  61 W5        29.96S WCI   0
LANGDON        CLOUDY    10   5  79 W7        29.90F WCI   0
CAVALIER         N/A     10   0  61 NW6       29.97R WCI   1
GRAFTON        CLOUDY    16   5  62 NW7       30.00R WCI   6
CANDO          FAIR       3   0  85 W6        29.94R WCI  -8
FORT TOTTEN      N/A     10   3  74 CALM      29.95S
ROLLA          MOCLDY     7   0  72 W9        29.87F WCI  -7
RUGBY          FAIR       1  -2  85 NW5       29.91S WCI  -8
 ***** THE ABOVE OBSERVATIONS ARE NON NWS ARE NOT QUALITY
        CONTROLLED AND MAY MIS-REPORT RAIN FOR SNOW...
$$

 *****  OTHER OBSERVATIONS SOUTHEAST NORTH DAKOTA *****

CITY           SKY/WX    TMP DP  RH WIND       PRES   REMARKS
COOPERSTOWN    FAIR      12   7  79 W9        29.95S WCI   0
VALLEY CITY    FLURRIES  16  10  79 W10       29.97S WCI   3
OAKES            N/A     10   3  72 S5        29.99S WCI   2
GWINNER          N/A     14   5  67 SW5       30.00R WCI   6
SHEYENNE NWR     N/A     13   8  79 SW3       29.95S
BUFFALO          N/A     17   7  65 NE10        N/A  WCI   5
WYNDMERE       NOT AVBL
 ***** THE ABOVE OBSERVATIONS ARE NON NWS ARE NOT QUALITY
       CONTROLLED AND MAY MIS-REPORT RAIN FOR SNOW...
$$

  *****  WEATHER ACROSS NORTHERN MINNESOTA  *****

CITY           SKY/WX    TMP DP  RH WIND       PRES   REMARKS
FLAG ISLAND    FAIR       5  -8  56 NW10      29.92R WCI -10
WARROAD        FAIR       9  -2  61 NW8       29.94R WCI  -4
ROSEAU         NOT AVBL
HALLOCK        CLOUDY    10   1  67 NW6       29.97S WCI   1
THF RVR FALLS  CLOUDY    14   7  73 N6        29.96R WCI   5
HALSTAD        NOT AVBL
FOSSTON        MOCLDY    10   3  72 SW9       29.95S WCI  -2
BAUDETTE       CLOUDY    13   2  61 NW15      29.90R WCI  -3
WASKISH        CLOUDY    12   5  73 SW12      29.91R WCI  -2
CROOKSTON      MOCLDY    16  10  79 N6        29.98S WCI   7
$$
  *****  WEATHER ACROSS CENTRAL AND WEST MINNESOTA  *****

CITY           SKY/WX    TMP DP  RH WIND       PRES   REMARKS
BEMIDJI        FAIR      12   2  65 SW7       29.93S WCI   1
PARK RAPIDS    FAIR       7  -1  70 W8        29.95R WCI  -6
WADENA         FAIR      12   1  62 W6        29.98S WCI   3
DETROIT LAKES  FAIR      16   7  67 W3        29.98S
MOORHEAD       FAIR      12   7  79 S5        30.00F WCI   4
FERGUS FALLS   FAIR      16   7  67 CALM      30.01S
ELBOW LAKE     FAIR      15   6  67 CALM      30.01S
MORRIS MN      FAIR      18   3  53 CALM      30.02R
STAPLES        FAIR       9   1  72 W8        29.99R WCI  -4
WHEATON        FAIR      19   7  58 CALM      30.05S
$$
  *****  WEATHER ELSEWHERE ACROSS MINNESOTA  *****

CITY           SKY/WX    TMP DP  RH WIND       PRES   REMARKS
DULUTH         FAIR      19   5  54 W10       29.89R WCI   7
INTRNTL FALLS  MOCLDY    13   1  59 W7        29.88R WCI   3
ELY            FAIR      16   3  57 W14       29.86R WCI   1
CLOQUET        FAIR      19   1  45 W9        29.91R WCI   9
BRAINERD       FAIR      18   3  52 W9        29.98R WCI   7
HIBBING        FAIR      14   3  61 W10       29.91R WCI   1
ALEXANDRIA     FAIR      15   4  61 NW7       29.99F WCI   5
SAINT CLOUD    FAIR      19   7  59 W7        30.02R WCI  10
MINNEAPOLIS    FAIR      27  12  53 NW14      30.03R WCI  16
$$

  *****  WEATHER ACROSS SOUTH DAKOTA  *****

CITY           SKY/WX    TMP DP  RH WIND       PRES   REMARKS
SIOUX FALLS    FAIR      23  18  81 SW5       30.06F WCI  17
BROOKINGS      FAIR      20  15  81 W6        30.03S WCI  12
WATERTOWN      FAIR      20  14  77 W6        29.99F WCI  12
HURON          FAIR      21  17  84 S6        30.04S WCI  13
SISSETON         N/A     12   3  67 S8        30.02R WCI   0
ABERDEEN       FAIR      12   7  80 W3        30.01F
MITCHELL       FAIR      24  19  81 S7        30.06F WCI  16
PIERRE         FAIR      14  11  87 E7        29.95F WCI   4
MOBRIDGE       CLOUDY    18  11  74 MISG      29.92F
RAPID CITY     CLOUDY    24  20  84 S7        29.79F WCI  16
$$

  *****  SOME WEATHER IN NEARBY STATES *****

CITY           SKY/WX    TMP DP  RH WIND       PRES   REMARKS
GLASGOW MT     CLOUDY    13   6  74 E12       29.77F WCI  -1
GREAT FALLS MT LGT SNOW  17  14  88 N10       29.44R VSB 1   WCI   5
CHEYENNE WY    FAIR      35  10  35 SW6       29.85F
SCOTTSBLUFF NE FAIR      39  17  41 SE12      29.82F
OMAHA NE       FAIR      32  25  75 CALM      30.15S
DES MOINES IA  FAIR      32  25  75 W3        30.14R
DAVENPORT IA   CLOUDY    25  20  81 W8        30.15R WCI  16
CHICAGO IL     CLOUDY    31  26  82 W17G23    30.04R WCI  19
EAU CLAIRE WI  FAIR      23  19  85 W7        29.97R WCI  15
LA CROSSE WI   FAIR      27  22  81 SW9       30.03R WCI  18
$$

  *****  SOME NATIONAL WEATHER *****

CITY           SKY/WX    TMP DP  RH WIND       PRES   REMARKS
LA GUARDIA NY  SNOW      33  31  92 NE7       30.12F VSB 1/2
RALEIGH NC     DRIZZLE   43  42  97 NE6       30.10F FOG
ATLANTA GA     MOCLDY    69  57  65 SW7       30.08S
NEW ORLEANS LA FAIR      72  64  76 SW7       30.14R
OKLAHOMA CITY  MOCLDY    49  25  39 E5        30.19R
ALBUQUERQUE NM MOCLDY    51  25  36 S8        30.16S
SALT LAKE CITY MOCLDY    56  14  19 S16G24    29.86F
LOS ANGELES CA FAIR      61  55  81 W12       30.05R
BOISE ID       MOCLDY    46  30  53 SE14      29.70F
SEATTLE WA     CLOUDY    44  37  76 SW14G26   29.59F
$$

*** WEATHER ACROSS MANITOBA...SASKATCHEWAN AND ONTARIO ***
                ***ONTARIO***

CITY           SKY/WX    TMP DP  RH WIND       PRES   REMARKS
GERALDTON      PTCLDY     9   3  78 SW3       29.68R
THUNDER BAY    CLEAR     19   1  45 W15G23    29.81R WCI   5
SIOUX LOOKOUT  MOCLDY     5  -4  66 NW12G24   29.79R WCI -11
TORONTO        CLOUDY    28  19  69 SW9       29.95F WCI  20
BIG TROUT LK   CLEAR     -9 -17  70 W8        29.68R WCI -26
PICKLE LAKE    MOCLDY     0  -9  65 W12G20    29.71R WCI -18
DRYDEN         CLOUDY     9   0  66 NW12G20   29.81R WCI  -6
KENORA         NOT AVBL
$$
                *** MANITOBA***

CITY           SKY/WX    TMP DP  RH WIND       PRES   REMARKS
BRANDON        CLEAR      0  -6  78 W12       29.90R WCI -18
DAUPHIN        MOCLDY     5  -4  66 W12       29.88R WCI -11
ISLAND LAKE    NOT AVBL
PILOT MOUND      N/A      7   1  78 SW2         N/A
THE PAS        CLEAR     -6 -17  59 W5        29.84R WCI -17
THOMPSON       PTCLDY   -18 -26  69 NW6       29.82R WCI -33
WINNIPEG       PTCLDY     7  -4  61 SW7       29.94R WCI  -5
LYNN LAKE      CLEAR    -24 -29  76 W5        29.78R WCI -38
CHURCHILL      CRYSTALS -35 -42  67 NW17G24   29.83R DRFTSNOWWCI -66
GILLAM         CLEAR    -24 -31  69 N6        29.80R WCI -40
$$
                ***SASKATCHEWAN***

CITY           SKY/WX    TMP DP  RH WIND       PRES   REMARKS
ESTEVAN        MOCLDY     1  -4  78 W5        29.85F WCI  -8
KINDERSLEY     MOCLDY     3  -2  78 CALM      29.82S
LLOYDMINSTER   FLURRIES   7  -2  66 NW9       29.82R WCI  -7
PRINCE ALBERT  PTCLDY     0  -6  78 W2        29.86R
REGINA         MOCLDY     0  -6  78 NW6       29.83F WCI -12
YORKTON        MOCLDY     3  -4  72 W7        29.84R WC



USA.gov is the U.S. government's official web portal to all federal, state and local government web resources and services.